Wind_Speed
7 7 7 7 7 7 6 6 6 6 7 6 6 6 6 6 5 5 5 4 4 5 5 5 5 5 6 6 6 6 6 6 6 6 7 8 8 8 8 9 9 9 9
6 7 6 7 6 6 5 5 5 6 6 6 6 6 5 5 5 5 5 5 5 5 6 6 6 6 6 6 7 7 7 7 7 7 8 8 8 8 9 10 10 10 11
5 5 5 6 6 5 5 4 4 5 4 5 5 5 5 5 5 5 5 5 5 6 6 6 7 7 7 7 8 8 8 8 8 8 8 8 8 9 10 11 11 12 12
4 4 4 5 5 5 5 4 4 4 4 4 4 4 4 5 5 5 5 5 5 6 6 7 7 7 8 8 9 9 9 9 9 9 9 10 10 10 10 11 11 12 13
3 4 3 3 4 4 4 4 4 4 4 4 4 4 5 5 5 5 5 5 6 6 7 7 8 8 8 8 9 10 10 11 11 11 10 11 11 12 12 11 11 12 13
3 3 3 3 3 4 3 3 3 3 3 3 4 4 5 5 5 5 5 6 6 6 7 8 9 9 9 10 10 11 11 11 11 11 11 12 12 13 13 13 13 14 14
4 4 3 2 2 2 2 2 3 3 3 3 4 5 5 5 5 6 6 6 7 7 8 8 9 10 10 11 11 12 12 12 12 12 13 13 13 13 14 14 14 15 15
6 5 4 3 2 2 2 2 3 3 3 4 5 5 6 5 6 7 7 7 8 9 9 9 10 10 11 12 12 13 13 13 14 14 13 14 14 14 14 15 15 15 16
7 6 5 6 4 4 3 3 4 4 4 4 5 6 6 6 7 8 8 8 9 10 10 10 11 12 12 13 14 14 14 14 15 15 15 14 15 15 15 15 15 16 16
9 7 7 6 6 5 4 4 5 5 5 5 5 6 7 7 8 9 9 10 10 11 11 11 13 13 13 14 15 15 15 15 16 16 16 16 15 15 16 17 17 17 17
9 9 8 7 7 7 7 6 7 7 7 7 7 7 8 9 9 10 11 11 11 12 13 13 14 15 15 15 16 16 17 17 17 17 17 17 17 17 18 18 19 19 19
10 10 9 8 8 8 8 8 8 8 9 9 9 9 10 10 11 12 12 13 12 13 14 15 16 16 16 17 17 18 19 18 18 18 18 19 19 19 20 20 20 20 20
11 11 11 10 10 9 9 9 10 10 10 11 11 11 12 12 13 13 14 14 15 15 17 17 17 17 17 18 19 19 20 20 20 20 20 20 20 21 21 21 21 21 22
12 13 13 12 12 11 11 12 12 12 12 12 13 13 14 14 15 15 16 17 17 17 18 18 18 18 18 19 20 20 21 21 21 21 21 22 22 22 22 22 23 23 23
15 15 14 14 14 14 13 13 14 13 13 14 15 16 16 16 16 17 18 18 18 19 19 19 19 19 19 20 21 21 21 21 22 22 23 23 23 23 23 24 24 24 23
16 16 14 14 14 15 15 15 15 15 15 16 16 17 17 18 18 18 19 19 20 20 20 19 20 20 21 22 22 23 22 22 23 23 24 24 24 24 24 24 23 24 24
17 17 16 16 17 17 17 17 17 17 17 18 18 18 19 19 19 20 20 21 21 21 21 22 22 23 23 23 23 24 24 24 24 24 25 25 26 25 25 24 24 24 24
19 18 19 19 19 20 19 19 19 19 19 19 20 20 20 21 21 22 22 23 23 23 23 23 23 24 24 25 25 25 25 25 25 25 26 26 26 26 25 25 24 24 24
22 21 21 21 21 22 22 21 21 22 21 21 22 23 22 22 22 23 23 24 24 24 24 25 25 26 25 26 26 26 26 26 26 26 26 26 26 26 26 26 26 26 25
24 24 23 22 22 23 23 23 23 23 22 23 23 24 25 24 24 24 25 25 26 26 26 26 26 26 27 27 27 26 26 26 26 26 26 27 27 27 27 26 27 27 26
26 26 25 25 24 25 25 25 25 24 24 24 25 25 26 26 26 26 25 25 26 26 27 27 27 28 28 28 27 27 28 27 27 26 26 27 27 27 27 27 27 27 27
28 28 28 28 28 27 26 26 27 27 27 27 27 27 27 28 29 28 27 27 27 28 28 29 29 30 30 29 28 29 28 27 27 27 26 26 27 27 27 27 27 28 27
29 29 30 30 30 30 28 28 29 29 29 28 28 29 29 30 29 29 29 29 29 30 30 31 31 31 30 30 29 29 28 27 27 27 27 27 27 27 27 27 27 27 27
30 31 31 32 32 31 30 30 29 29 29 30 30 31 31 31 31 32 32 32 32 32 31 32 32 31 31 30 30 30 28 28 28 27 27 27 27 27 28 27 27 27 27
30 30 32 33 33 32 31 30 30 30 31 31 32 32 33 33 33 33 33 34 34 34 34 33 33 33 32 31 30 29 28 28 28 28 27 27 28 28 28 27 27 27 28
30 31 31 32 33 33 32 31 31 30 31 32 32 32 33 34 35 34 35 35 35 35 34 34 33 32 32 31 30 29 29 28 28 28 27 28 28 27 27 27 27 27 27
Wind_Direction
44 46 51 51 48 49 51 49 52 59 57 60 59 56 53 52 49 47 40 33 30 31 26 19 11 5 1 358 351 344 339 333 330 327 324 319 313 307 301 302 302 299 294
38 41 46 48 42 40 44 49 50 53 58 60 53 52 49 45 42 42 31 23 28 30 22 18 9 2 359 352 344 336 332 327 323 323 322 320 315 306 301 301 302 300 295
28 36 40 41 38 36 42 50 46 51 55 57 49 44 36 34 34 32 23 16 19 20 14 7 3 0 356 350 346 341 335 329 323 321 319 316 313 304 300 299 300 300 297
11 16 25 38 40 36 34 38 41 48 56 57 44 36 29 27 27 27 19 8 11 10 4 359 356 355 352 348 345 341 336 329 323 318 316 311 307 307 303 297 297 298 296
341 347 353 18 32 26 27 42 42 45 47 41 33 30 20 15 15 14 13 10 7 1 359 354 350 346 342 340 339 337 333 327 323 318 316 313 310 307 306 304 301 298 296
299 321 328 354 15 13 15 34 29 30 28 23 15 8 5 6 6 5 3 3 1 357 351 345 341 337 335 334 332 331 329 326 322 319 316 313 312 308 307 307 304 301 298
280 298 306 312 342 3 21 17 2 7 10 5 359 359 359 356 355 354 351 350 351 348 343 340 337 333 332 330 329 328 327 326 322 317 313 310 309 306 305 306 306 304 302
281 286 285 279 287 310 325 342 339 343 342 343 347 351 349 344 343 343 340 339 339 335 333 330 328 326 326 326 325 327 325 324 321 317 312 308 307 305 304 303 303 304 303
279 286 279 268 265 279 287 302 311 318 325 325 329 332 333 332 332 332 332 331 330 328 326 324 323 323 324 324 323 322 322 321 319 315 313 309 305 303 303 304 303 303 303
272 272 280 268 263 267 283 290 297 300 305 306 311 318 320 322 327 324 322 322 324 322 321 322 321 323 323 321 320 318 318 318 318 317 314 311 308 304 304 304 304 303 303
269 270 274 266 265 273 276 293 296 293 298 302 303 305 310 314 312 316 316 315 314 314 314 315 317 317 317 318 318 317 316 314 314 313 312 310 308 308 308 307 306 305 304
269 266 269 273 276 283 285 293 295 292 290 291 296 301 303 306 307 310 312 312 312 309 308 309 311 311 311 311 314 315 314 312 313 314 313 312 309 308 307 307 307 306 306
274 273 272 276 279 283 286 288 290 290 288 287 289 296 300 302 303 306 307 307 307 307 307 306 307 307 306 307 310 311 311 310 310 312 313 312 311 309 306 305 305 304 305
277 275 273 274 275 278 280 282 284 288 288 286 287 292 295 297 300 304 305 306 306 306 306 305 304 303 305 306 309 309 309 308 308 309 311 311 310 309 306 304 304 303 304
281 280 273 272 272 274 276 279 282 282 284 285 287 291 293 295 298 300 301 301 303 305 305 306 305 306 306 305 305 307 307 307 307 307 308 308 307 307 306 304 303 304 304
277 277 275 270 271 272 273 277 279 278 280 284 288 290 293 295 296 298 298 299 300 302 303 303 304 303 303 303 303 303 304 305 305 305 306 306 305 306 307 306 304 304 304
273 272 272 272 268 269 271 275 276 277 281 284 288 291 291 292 294 296 296 297 297 298 299 301 303 301 300 299 300 301 301 303 304 304 304 304 304 305 305 305 304 304 304
271 270 270 272 271 270 272 275 276 277 279 283 285 287 287 288 290 292 293 294 294 295 296 298 300 300 300 300 299 299 300 301 302 303 303 303 304 305 303 302 302 302 303
271 272 271 270 272 274 274 275 278 278 280 282 284 286 287 288 289 290 291 293 295 295 296 297 297 299 299 299 299 299 298 299 301 301 301 302 303 304 304 303 303 303 303
270 271 271 270 271 273 274 275 278 279 279 282 284 285 286 286 287 288 290 292 294 295 296 297 299 300 300 299 298 298 299 299 300 299 299 299 300 301 302 302 303 303 302
267 270 272 271 272 274 275 276 277 280 281 282 283 284 284 285 285 286 289 290 293 294 295 296 297 298 298 298 298 298 299 299 300 299 300 301 301 302 302 303 304 303 301
266 267 270 272 273 274 273 275 276 278 281 282 282 282 282 283 285 286 288 289 291 292 294 295 296 297 297 295 295 296 297 297 297 299 300 301 302 302 302 303 304 304 302
264 265 267 269 271 273 272 274 276 278 280 281 283 282 283 283 286 286 288 289 290 291 293 294 295 295 294 293 293 294 294 293 295 297 299 300 301 302 302 303 304 303 302
263 265 266 268 270 271 271 272 274 276 279 280 283 282 282 284 284 286 287 288 290 291 291 292 293 293 291 291 291 292 292 293 294 296 298 298 299 301 303 303 303 302 302
265 266 268 269 270 272 269 270 273 276 279 281 282 283 282 283 284 284 285 287 290 290 289 290 290 291 291 290 290 290 290 290 292 294 296 298 299 300 302 302 301 301 302
266 268 270 270 270 269 269 271 273 277 279 281 282 283 284 285 285 284 285 288 289 290 288 288 288 290 291 290 290 289 288 289 291 293 294 295 297 299 299 300 301 302 302
Height
5902 5901 5900 5899 5898 5897 5897 5896 5895 5894 5894 5894 5893 5893 5892 5892 5891 5891 5890 5890 5889 5889 5888 5888 5887 5886 5886 5885 5884 5883 5883 5882 5881 5880 5879 5878 5876 5875 5874 5873 5873 5872 5871
5903 5902 5901 5900 5899 5898 5897 5897 5896 5895 5895 5895 5894 5894 5893 5893 5892 5892 5891 5890 5889 5889 5888 5888 5887 5886 5885 5884 5883 5882 5882 5881 5880 5878 5877 5876 5876 5874 5872 5871 5870 5869 5868
5903 5902 5901 5900 5899 5898 5898 5897 5896 5896 5895 5895 5894 5894 5894 5893 5893 5892 5891 5891 5890 5889 5888 5887 5887 5886 5885 5883 5882 5881 5880 5879 5878 5877 5876 5874 5873 5872 5871 5869 5868 5866 5865
5903 5902 5901 5900 5899 5898 5898 5897 5897 5896 5895 5895 5895 5894 5894 5893 5893 5892 5891 5891 5890 5889 5888 5887 5886 5885 5884 5883 5881 5880 5879 5878 5876 5875 5873 5872 5871 5869 5868 5867 5865 5864 5862
5903 5902 5901 5900 5899 5899 5898 5897 5897 5896 5896 5895 5895 5894 5894 5893 5892 5891 5891 5890 5889 5888 5888 5887 5886 5884 5883 5882 5880 5879 5877 5876 5874 5873 5871 5870 5868 5866 5865 5864 5863 5861 5859
5903 5902 5901 5900 5899 5898 5898 5897 5897 5896 5896 5895 5895 5894 5894 5893 5892 5891 5890 5889 5889 5888 5887 5886 5885 5883 5882 5880 5879 5877 5876 5874 5872 5871 5869 5867 5866 5864 5862 5860 5859 5857 5856
5902 5901 5901 5900 5899 5898 5897 5897 5896 5896 5895 5895 5894 5894 5893 5892 5892 5891 5890 5889 5888 5887 5886 5885 5884 5882 5881 5879 5877 5875 5874 5872 5870 5868 5866 5864 5863 5861 5859 5857 5855 5854 5852
5901 5900 5899 5899 5898 5897 5897 5896 5896 5895 5895 5895 5894 5893 5893 5892 5891 5890 5889 5888 5887 5886 5885 5884 5882 5881 5879 5877 5875 5873 5871 5869 5867 5865 5863 5861 5860 5858 5856 5854 5852 5850 5848
5900 5899 5898 5898 5897 5897 5896 5896 5895 5895 5894 5894 5893 5893 5892 5891 5890 5889 5888 5887 5886 5885 5883 5882 5880 5878 5877 5875 5873 5871 5869 5867 5865 5862 5860 5858 5856 5854 5852 5850 5848 5846 5844
5898 5897 5897 5897 5896 5896 5895 5895 5894 5894 5893 5893 5892 5891 5891 5890 5889 5888 5887 5886 5884 5883 5881 5880 5878 5876 5874 5872 5870 5868 5866 5864 5862 5859 5857 5855 5853 5851 5849 5846 5844 5842 5840
5896 5895 5895 5895 5894 5894 5894 5893 5892 5892 5891 5891 5891 5890 5889 5888 5887 5886 5885 5883 5882 5881 5879 5877 5876 5874 5872 5870 5868 5865 5863 5861 5858 5856 5854 5852 5849 5847 5845 5842 5840 5838 5836
5893 5893 5893 5893 5892 5892 5892 5891 5890 5890 5889 5889 5889 5888 5887 5886 5885 5883 5882 5881 5879 5878 5876 5874 5873 5871 5869 5867 5864 5862 5860 5857 5855 5852 5850 5848 5845 5843 5840 5838 5835 5833 5831
5890 5890 5890 5890 5890 5890 5889 5889 5888 5888 5887 5887 5886 5885 5884 5883 5882 5880 5879 5878 5876 5874 5873 5871 5869 5867 5865 5862 5860 5858 5855 5853 5851 5848 5846 5843 5841 5838 5835 5833 5830 5828 5825
5887 5887 5887 5887 5887 5887 5886 5886 5885 5885 5884 5884 5883 5882 5881 5880 5878 5877 5876 5874 5872 5870 5869 5867 5864 5862 5860 5858 5856 5853 5851 5848 5846 5843 5841 5838 5835 5833 5830 5827 5825 5822 5820
5885 5884 5884 5883 5883 5883 5883 5882 5882 5882 5881 5880 5880 5879 5877 5876 5875 5873 5872 5870 5868 5866 5864 5862 5860 5858 5855 5853 5851 5848 5846 5843 5841 5838 5835 5832 5830 5827 5824 5821 5819 5816 5814
5881 5880 5880 5880 5879 5879 5879 5878 5878 5877 5877 5876 5875 5874 5873 5872 5870 5869 5867 5866 5864 5862 5860 5858 5855 5853 5851 5848 5846 5843 5840 5838 5835 5832 5829 5827 5824 5821 5818 5815 5813 5810 5808
5876 5876 5875 5875 5875 5874 5874 5874 5873 5873 5872 5871 5870 5869 5868 5867 5866 5864 5863 5861 5859 5857 5855 5852 5850 5848 5845 5843 5840 5837 5835 5832 5830 5827 5824 5821 5818 5815 5812 5810 5807 5804 5802
5871 5871 5871 5870 5870 5869 5869 5869 5868 5868 5867 5866 5865 5863 5862 5861 5860 5859 5857 5855 5854 5851 5849 5847 5844 5842 5839 5837 5834 5831 5829 5826 5824 5821 5818 5815 5812 5809 5806 5804 5801 5798 5796
5865 5865 5864 5864 5864 5864 5863 5863 5862 5862 5861 5860 5859 5858 5856 5855 5854 5853 5851 5849 5847 5845 5843 5841 5838 5835 5833 5830 5828 5825 5822 5820 5817 5815 5812 5809 5806 5803 5800 5797 5795 5792 5789
5858 5858 5857 5858 5858 5858 5857 5857 5856 5855 5855 5854 5852 5851 5850 5849 5847 5846 5844 5842 5840 5838 5836 5834 5831 5829 5826 5824 5821 5818 5816 5813 5810 5808 5805 5802 5799 5796 5793 5791 5788 5785 5783
5851 5851 5851 5851 5850 5850 5850 5850 5849 5849 5848 5847 5845 5844 5843 5841 5840 5839 5837 5835 5833 5831 5829 5827 5824 5822 5819 5817 5814 5811 5809 5806 5804 5801 5798 5795 5792 5789 5786 5784 5781 5778 5775
5844 5844 5844 5843 5843 5842 5842 5842 5841 5841 5840 5839 5838 5837 5835 5834 5832 5831 5829 5827 5825 5823 5821 5819 5817 5814 5812 5809 5807 5804 5801 5799 5797 5794 5791 5788 5785 5782 5779 5776 5774 5771 5768
5836 5836 5836 5835 5835 5834 5833 5834 5833 5832 5832 5831 5830 5828 5827 5826 5825 5823 5821 5820 5817 5815 5813 5811 5809 5806 5804 5801 5799 5796 5794 5791 5789 5787 5784 5781 5778 5775 5772 5770 5767 5764 5761
5827 5827 5827 5827 5826 5826 5825 5825 5824 5824 5823 5822 5821 5820 5819 5818 5816 5815 5813 5811 5809 5807 5805 5802 5800 5798 5795 5793 5791 5788 5786 5784 5781 5779 5777 5774 5771 5768 5765 5762 5759 5756 5754
5817 5817 5817 5817 5817 5817 5817 5816 5816 5816 5815 5814 5813 5811 5810 5809 5807 5806 5804 5802 5800 5798 5796 5794 5791 5789 5787 5784 5782 5780 5778 5776 5774 5771 5769 5767 5764 5761 5758 5755 5752 5749 5746
5808 5807 5808 5808 5808 5808 5808 5808 5807 5806 5806 5805 5804 5802 5801 5799 5798 5796 5794 5792 5790 5788 5785 5783 5781 5779 5778 5775 5773 5771 5769 5767 5766 5763 5761 5759 5756 5754 5751 5748 5745 5742 5739